Year,Month,Day,Hour,Minute,Value (Times are PST for temperature in C)
2015,06,21,00,00,12.70
2015,06,21,00,01,12.70
2015,06,21,00,02,12.70
2015,06,21,00,03,12.70
2015,06,21,00,04,12.70
2015,06,21,00,05,12.70
2015,06,21,00,06,12.70
2015,06,21,00,07,12.60
2015,06,21,00,08,12.60
2015,06,21,00,09,12.60
2015,06,21,00,10,12.60
2015,06,21,00,11,12.60
2015,06,21,00,12,12.60
2015,06,21,00,13,12.60
2015,06,21,00,14,12.60
2015,06,21,00,15,12.60
2015,06,21,00,16,12.60
2015,06,21,00,17,12.60
2015,06,21,00,18,12.70
2015,06,21,00,19,12.70
2015,06,21,00,20,12.70
2015,06,21,00,21,12.70
2015,06,21,00,22,12.80
2015,06,21,00,23,12.80
2015,06,21,00,24,12.80
2015,06,21,00,25,12.90
2015,06,21,00,26,12.90
2015,06,21,00,27,13.00
2015,06,21,00,28,13.10
2015,06,21,00,29,13.10
2015,06,21,00,30,13.20
2015,06,21,00,31,13.20
2015,06,21,00,32,13.30
2015,06,21,00,33,13.40
2015,06,21,00,34,13.50
2015,06,21,00,35,13.60
2015,06,21,00,36,13.70
2015,06,21,00,37,13.80
2015,06,21,00,38,13.90
2015,06,21,00,39,14.00
2015,06,21,00,40,14.10
2015,06,21,00,41,14.20
2015,06,21,00,42,14.30
2015,06,21,00,43,14.30
2015,06,21,00,44,14.40
2015,06,21,00,45,14.50
2015,06,21,00,46,14.60
2015,06,21,00,47,14.60
2015,06,21,00,48,14.70
2015,06,21,00,49,14.80
2015,06,21,00,50,15.00
2015,06,21,00,51,15.00
2015,06,21,00,52,15.00
2015,06,21,00,53,15.00
2015,06,21,00,54,15.00
2015,06,21,00,55,15.00
2015,06,21,00,56,15.10
2015,06,21,00,57,15.10
2015,06,21,00,58,15.10
2015,06,21,00,59,15.10
2015,06,21,01,00,15.10
2015,06,21,01,01,15.10
2015,06,21,01,02,15.10
2015,06,21,01,03,15.10
2015,06,21,01,04,15.10
2015,06,21,01,05,15.10
2015,06,21,01,06,15.20
2015,06,21,01,07,15.20
2015,06,21,01,08,15.20
2015,06,21,01,09,15.20
2015,06,21,01,10,15.20
2015,06,21,01,11,15.30
2015,06,21,01,12,15.30
2015,06,21,01,13,15.30
2015,06,21,01,14,15.30
2015,06,21,01,15,15.30
2015,06,21,01,16,15.30
2015,06,21,01,17,15.40
2015,06,21,01,18,15.40
2015,06,21,01,19,15.40
2015,06,21,01,20,15.40
2015,06,21,01,21,15.40
2015,06,21,01,22,15.40
2015,06,21,01,23,15.40
2015,06,21,01,24,15.40
2015,06,21,01,25,15.40
2015,06,21,01,26,15.40
2015,06,21,01,27,15.40
2015,06,21,01,28,15.40
2015,06,21,01,29,15.30
2015,06,21,01,30,15.30
2015,06,21,01,31,15.30
2015,06,21,01,32,15.30
2015,06,21,01,33,15.30
2015,06,21,01,34,15.30
2015,06,21,01,35,15.20
2015,06,21,01,36,15.20
2015,06,21,01,37,15.20
2015,06,21,01,38,15.20
2015,06,21,01,39,15.20
2015,06,21,01,40,15.10
2015,06,21,01,41,15.10
2015,06,21,01,42,15.00
2015,06,21,01,43,15.00
2015,06,21,01,44,15.00
2015,06,21,01,45,15.00
2015,06,21,01,46,15.00
2015,06,21,01,47,15.00
2015,06,21,01,48,14.90
2015,06,21,01,49,14.90
2015,06,21,01,50,14.80
2015,06,21,01,51,14.80
2015,06,21,01,52,14.70
2015,06,21,01,53,14.70
2015,06,21,01,54,14.70
2015,06,21,01,55,14.60
2015,06,21,01,56,14.60
2015,06,21,01,57,14.50
2015,06,21,01,58,14.50
2015,06,21,01,59,14.50
2015,06,21,02,00,14.50
2015,06,21,02,01,14.40
2015,06,21,02,02,14.40
2015,06,21,02,03,14.40
2015,06,21,02,04,14.30
2015,06,21,02,05,14.30
2015,06,21,02,06,14.30
2015,06,21,02,07,14.20
2015,06,21,02,08,14.20
2015,06,21,02,09,14.20
2015,06,21,02,10,14.20
2015,06,21,02,11,14.20
2015,06,21,02,12,14.20
2015,06,21,02,13,14.20
2015,06,21,02,14,14.20
2015,06,21,02,15,14.20
2015,06,21,02,16,14.10
2015,06,21,02,17,14.10
2015,06,21,02,18,14.10
2015,06,21,02,19,14.10
2015,06,21,02,20,14.00
2015,06,21,02,21,14.00
2015,06,21,02,22,14.00
2015,06,21,02,23,14.00
2015,06,21,02,24,14.10
2015,06,21,02,25,14.10
2015,06,21,02,26,14.10
2015,06,21,02,27,14.10
2015,06,21,02,28,14.10
2015,06,21,02,29,14.20
2015,06,21,02,30,14.20
2015,06,21,02,31,14.30
2015,06,21,02,32,14.30
2015,06,21,02,33,14.30
2015,06,21,02,34,14.30
2015,06,21,02,35,14.30
2015,06,21,02,36,14.30
2015,06,21,02,37,14.30
2015,06,21,02,38,14.40
2015,06,21,02,39,14.40
2015,06,21,02,40,14.50
2015,06,21,02,41,14.60
2015,06,21,02,42,14.70
2015,06,21,02,43,14.70
2015,06,21,02,44,14.70
2015,06,21,02,45,14.70
2015,06,21,02,46,14.70
2015,06,21,02,47,14.70
2015,06,21,02,48,14.70
2015,06,21,02,49,14.70
2015,06,21,02,50,14.70
2015,06,21,02,51,14.60
2015,06,21,02,52,14.60
2015,06,21,02,53,14.60
2015,06,21,02,54,14.60
2015,06,21,02,55,14.60
2015,06,21,02,56,14.60
2015,06,21,02,57,14.60
2015,06,21,02,58,14.60
2015,06,21,02,59,14.60
2015,06,21,03,00,14.60
2015,06,21,03,01,14.60
2015,06,21,03,02,14.60
2015,06,21,03,03,14.70
2015,06,21,03,06,14.70
2015,06,21,03,07,14.60
2015,06,21,03,08,14.60
2015,06,21,03,09,14.60
2015,06,21,03,10,14.60
2015,06,21,03,11,14.50
2015,06,21,03,12,14.50
2015,06,21,03,13,14.50
2015,06,21,03,14,14.40
2015,06,21,03,15,14.40
2015,06,21,03,16,14.40
2015,06,21,03,17,14.40
2015,06,21,03,18,14.40
2015,06,21,03,19,14.40
2015,06,21,03,20,14.40
2015,06,21,03,21,14.40
2015,06,21,03,22,14.40
2015,06,21,03,23,14.40
2015,06,21,03,24,14.40
2015,06,21,03,25,14.30
2015,06,21,03,26,14.30
2015,06,21,03,27,14.30
2015,06,21,03,28,14.30
2015,06,21,03,29,14.20
2015,06,21,03,30,14.20
2015,06,21,03,31,14.20
2015,06,21,03,32,14.20
2015,06,21,03,33,14.20
2015,06,21,03,34,14.10
2015,06,21,03,35,14.10
2015,06,21,03,36,14.10
2015,06,21,03,37,14.10
2015,06,21,03,38,14.10
2015,06,21,03,39,14.10
2015,06,21,03,40,14.10
2015,06,21,03,41,14.00
2015,06,21,03,42,14.00
2015,06,21,03,43,14.00
2015,06,21,03,44,14.00
2015,06,21,03,45,14.00
2015,06,21,03,46,14.00
2015,06,21,03,47,13.90
2015,06,21,03,48,13.90
2015,06,21,03,49,13.90
2015,06,21,03,50,13.90
2015,06,21,03,51,13.90
2015,06,21,03,52,13.80
2015,06,21,03,53,13.80
2015,06,21,03,54,13.80
2015,06,21,03,55,13.80
2015,06,21,03,56,13.80
2015,06,21,03,57,13.80
2015,06,21,03,58,13.80
2015,06,21,03,59,13.80
2015,06,21,04,00,13.80
2015,06,21,04,01,13.80
2015,06,21,04,02,13.80
2015,06,21,04,03,13.90
2015,06,21,04,04,13.90
2015,06,21,04,05,13.90
2015,06,21,04,06,13.90
2015,06,21,04,07,13.90
2015,06,21,04,08,13.90
2015,06,21,04,09,13.90
2015,06,21,04,10,13.90
2015,06,21,04,11,13.90
2015,06,21,04,12,13.90
2015,06,21,04,13,13.90
2015,06,21,04,14,13.90
2015,06,21,04,15,13.90
2015,06,21,04,16,14.00
2015,06,21,04,17,14.00
2015,06,21,04,18,14.00
2015,06,21,04,19,14.00
2015,06,21,04,20,14.00
2015,06,21,04,21,14.00
2015,06,21,04,22,14.00
2015,06,21,04,23,13.90
2015,06,21,04,24,13.90
2015,06,21,04,25,13.90
2015,06,21,04,26,13.90
2015,06,21,04,27,13.90
2015,06,21,04,28,13.90
2015,06,21,04,29,13.90
2015,06,21,04,30,13.90
2015,06,21,04,31,13.90
2015,06,21,04,32,14.00
2015,06,21,04,33,14.00
2015,06,21,04,34,14.00
2015,06,21,04,35,14.00
2015,06,21,04,36,14.00
2015,06,21,04,37,14.00
2015,06,21,04,38,14.00
2015,06,21,04,39,14.00
2015,06,21,04,40,13.90
2015,06,21,04,41,13.90
2015,06,21,04,42,13.90
2015,06,21,04,43,13.90
2015,06,21,04,44,13.90
2015,06,21,04,45,13.90
2015,06,21,04,46,13.90
2015,06,21,04,47,13.90
2015,06,21,04,48,13.90
2015,06,21,04,49,13.90
2015,06,21,04,50,13.90
2015,06,21,04,51,13.90
2015,06,21,04,52,13.80
2015,06,21,04,53,13.80
2015,06,21,04,54,13.80
2015,06,21,04,55,13.80
2015,06,21,04,56,13.80
2015,06,21,04,57,13.70
2015,06,21,04,58,13.70
2015,06,21,04,59,13.70
2015,06,21,05,00,13.70
2015,06,21,05,01,13.70
2015,06,21,05,02,13.70
2015,06,21,05,03,13.70
2015,06,21,05,04,13.70
2015,06,21,05,05,13.70
2015,06,21,05,06,13.70
2015,06,21,05,07,13.70
2015,06,21,05,08,13.70
2015,06,21,05,09,13.70
2015,06,21,05,10,13.70
2015,06,21,05,11,13.70
2015,06,21,05,12,13.70
2015,06,21,05,13,13.70
2015,06,21,05,14,13.80
2015,06,21,05,15,13.70
2015,06,21,05,16,13.80
2015,06,21,05,17,13.80
2015,06,21,05,18,13.70
2015,06,21,05,19,13.70
2015,06,21,05,20,13.70
2015,06,21,05,21,13.70
2015,06,21,05,22,13.70
2015,06,21,05,23,13.70
2015,06,21,05,24,13.70
2015,06,21,05,25,13.70
2015,06,21,05,26,13.70
2015,06,21,05,27,13.70
2015,06,21,05,28,13.70
2015,06,21,05,29,13.70
2015,06,21,05,30,13.60
2015,06,21,05,31,13.60
2015,06,21,05,32,13.60
2015,06,21,05,33,13.60
2015,06,21,05,34,13.60
2015,06,21,05,35,13.60
2015,06,21,05,36,13.60
2015,06,21,05,37,13.60
2015,06,21,05,38,13.60
2015,06,21,05,39,13.60
2015,06,21,05,40,13.60
2015,06,21,05,41,13.60
2015,06,21,05,42,13.60
2015,06,21,05,43,13.60
2015,06,21,05,44,13.60
2015,06,21,05,45,13.60
2015,06,21,05,46,13.60
2015,06,21,05,47,13.60
2015,06,21,05,48,13.70
2015,06,21,05,49,13.80
2015,06,21,05,50,13.80
2015,06,21,05,51,13.90
2015,06,21,05,52,13.90
2015,06,21,05,53,14.00
2015,06,21,05,54,14.10
2015,06,21,05,55,14.10
2015,06,21,05,56,14.20
2015,06,21,05,57,14.20
2015,06,21,05,58,14.20
2015,06,21,05,59,14.20
2015,06,21,06,00,14.20
2015,06,21,06,01,14.30
2015,06,21,06,02,14.30
2015,06,21,06,03,14.30
2015,06,21,06,04,14.30
2015,06,21,06,05,14.40
2015,06,21,06,06,14.40
2015,06,21,06,07,14.40
2015,06,21,06,08,14.40
2015,06,21,06,09,14.40
2015,06,21,06,10,14.40
2015,06,21,06,11,14.40
2015,06,21,06,12,14.40
2015,06,21,06,13,14.40
2015,06,21,06,14,14.50
2015,06,21,06,15,14.50
2015,06,21,06,16,14.60
2015,06,21,06,17,14.60
2015,06,21,06,18,14.70
2015,06,21,06,19,14.70
2015,06,21,06,20,14.70
2015,06,21,06,21,14.80
2015,06,21,06,22,14.80
2015,06,21,06,23,14.80
2015,06,21,06,24,14.80
2015,06,21,06,25,14.80
2015,06,21,06,26,14.80
2015,06,21,06,27,14.80
2015,06,21,06,28,14.80
2015,06,21,06,29,14.80
2015,06,21,06,30,14.80
2015,06,21,06,31,14.80
2015,06,21,06,32,14.80
2015,06,21,06,33,14.80
2015,06,21,06,34,14.80
2015,06,21,06,35,14.80
2015,06,21,06,36,14.80
2015,06,21,06,37,14.80
2015,06,21,06,38,14.80
2015,06,21,06,39,14.90
2015,06,21,06,40,14.90
2015,06,21,06,41,15.00
2015,06,21,06,42,15.00
2015,06,21,06,43,15.00
2015,06,21,06,44,15.00
2015,06,21,06,45,15.00
2015,06,21,06,46,15.00
2015,06,21,06,47,15.00
2015,06,21,06,48,15.00
2015,06,21,06,49,15.10
2015,06,21,06,50,15.20
2015,06,21,06,51,15.30
2015,06,21,06,52,15.30
2015,06,21,06,53,15.40
2015,06,21,06,54,15.50
2015,06,21,06,55,15.50
2015,06,21,06,56,15.60
2015,06,21,06,57,15.70
2015,06,21,06,58,15.80
2015,06,21,06,59,15.80
2015,06,21,07,00,15.90
2015,06,21,07,01,16.00
2015,06,21,07,02,16.10
2015,06,21,07,03,16.10
2015,06,21,07,04,16.20
2015,06,21,07,05,16.30
2015,06,21,07,06,16.30
2015,06,21,07,07,16.30
2015,06,21,07,08,16.40
2015,06,21,07,09,16.40
2015,06,21,07,10,16.40
2015,06,21,07,11,16.40
2015,06,21,07,12,16.40
2015,06,21,07,13,16.40
2015,06,21,07,14,16.40
2015,06,21,07,15,16.40
2015,06,21,07,16,16.40
2015,06,21,07,17,16.50
2015,06,21,07,18,16.50
2015,06,21,07,19,16.50
2015,06,21,07,20,16.60
2015,06,21,07,21,16.60
2015,06,21,07,22,16.60
2015,06,21,07,23,16.60
2015,06,21,07,24,16.70
2015,06,21,07,25,16.70
2015,06,21,07,26,16.70
2015,06,21,07,27,16.70
2015,06,21,07,28,16.70
2015,06,21,07,29,16.70
2015,06,21,07,30,16.70
2015,06,21,07,31,16.70
2015,06,21,07,32,16.70
2015,06,21,07,33,16.70
2015,06,21,07,34,16.80
2015,06,21,07,35,16.80
2015,06,21,07,36,16.80
2015,06,21,07,37,16.80
2015,06,21,07,38,16.90
2015,06,21,07,39,16.90
2015,06,21,07,40,16.90
2015,06,21,07,41,16.90
2015,06,21,07,42,16.90
2015,06,21,07,43,16.90
2015,06,21,07,44,16.90
2015,06,21,07,45,17.00
2015,06,21,07,46,17.00
2015,06,21,07,47,17.10
2015,06,21,07,48,17.10
2015,06,21,07,49,17.00
2015,06,21,07,50,17.10
2015,06,21,07,51,17.10
2015,06,21,07,52,17.10
2015,06,21,07,53,17.20
2015,06,21,07,54,17.30
2015,06,21,07,55,17.30
2015,06,21,07,56,17.30
2015,06,21,07,57,17.40
2015,06,21,07,58,17.40
2015,06,21,07,59,17.40
2015,06,21,08,00,17.40
2015,06,21,08,01,17.40
2015,06,21,08,02,17.40
2015,06,21,08,03,17.40
2015,06,21,08,04,17.50
2015,06,21,08,05,17.50
2015,06,21,08,06,17.50
2015,06,21,08,07,17.50
2015,06,21,08,08,17.50
2015,06,21,08,09,17.60
2015,06,21,08,10,17.70
2015,06,21,08,11,17.80
2015,06,21,08,12,17.80
2015,06,21,08,13,17.90
2015,06,21,08,14,17.90
2015,06,21,08,15,17.90
2015,06,21,08,16,18.00
2015,06,21,08,17,18.00
2015,06,21,08,18,18.00
2015,06,21,08,19,18.10
2015,06,21,08,20,18.10
2015,06,21,08,21,18.10
2015,06,21,08,22,18.10
2015,06,21,08,23,18.10
2015,06,21,08,24,18.10
2015,06,21,08,25,18.20
2015,06,21,08,26,18.20
2015,06,21,08,27,18.20
2015,06,21,08,28,18.20
2015,06,21,08,29,18.20
2015,06,21,08,30,18.20
2015,06,21,08,31,18.20
2015,06,21,08,32,18.10
2015,06,21,08,33,18.10
2015,06,21,08,34,18.20
2015,06,21,08,35,18.20
2015,06,21,08,36,18.20
2015,06,21,08,37,18.30
2015,06,21,08,38,18.40
2015,06,21,08,39,18.40
2015,06,21,08,40,18.50
2015,06,21,08,41,18.50
2015,06,21,08,42,18.40
2015,06,21,08,43,18.40
2015,06,21,08,44,18.40
2015,06,21,08,45,18.40
2015,06,21,08,46,18.40
2015,06,21,08,47,18.40
2015,06,21,08,48,18.50
2015,06,21,08,49,18.60
2015,06,21,08,50,18.60
2015,06,21,08,51,18.70
2015,06,21,08,52,18.80
2015,06,21,08,53,18.90
2015,06,21,08,54,19.00
2015,06,21,08,55,19.00
2015,06,21,08,56,19.00
2015,06,21,08,57,19.10
2015,06,21,08,58,19.20
2015,06,21,08,59,19.20
2015,06,21,09,00,19.10
2015,06,21,09,01,19.00
2015,06,21,09,02,19.00
2015,06,21,09,03,18.90
2015,06,21,09,04,18.90
2015,06,21,09,05,18.90
2015,06,21,09,06,19.00
2015,06,21,09,07,19.10
2015,06,21,09,08,19.20
2015,06,21,09,09,19.20
2015,06,21,09,10,19.10
2015,06,21,09,11,19.20
2015,06,21,09,12,19.20
2015,06,21,09,13,19.30
2015,06,21,09,14,19.30
2015,06,21,09,15,19.40
2015,06,21,09,16,19.50
2015,06,21,09,17,19.60
2015,06,21,09,18,19.60
2015,06,21,09,19,19.60
2015,06,21,09,20,19.60
2015,06,21,09,21,19.60
2015,06,21,09,22,19.50
2015,06,21,09,23,19.50
2015,06,21,09,24,19.40
2015,06,21,09,25,19.30
2015,06,21,09,26,19.30
2015,06,21,09,27,19.20
2015,06,21,09,28,19.10
2015,06,21,09,29,19.10
2015,06,21,09,30,19.10
2015,06,21,09,31,19.10
2015,06,21,09,32,19.10
2015,06,21,09,33,19.10
2015,06,21,09,34,19.00
2015,06,21,09,35,19.00
2015,06,21,09,36,19.00
2015,06,21,09,37,18.90
2015,06,21,09,38,18.90
2015,06,21,09,39,18.90
2015,06,21,09,40,18.90
2015,06,21,09,41,18.90
2015,06,21,09,42,18.90
2015,06,21,09,43,18.90
2015,06,21,09,44,19.00
2015,06,21,09,45,19.10
2015,06,21,09,46,19.20
2015,06,21,09,47,19.30
2015,06,21,09,48,19.40
2015,06,21,09,49,19.50
2015,06,21,09,50,19.50
2015,06,21,09,51,19.40
2015,06,21,09,52,19.40
2015,06,21,09,53,19.40
2015,06,21,09,54,19.40
2015,06,21,09,55,19.40
2015,06,21,09,56,19.40
2015,06,21,09,57,19.40
2015,06,21,09,58,19.50
2015,06,21,09,59,19.50
2015,06,21,10,00,19.60
2015,06,21,10,01,19.70
2015,06,21,10,02,19.70
2015,06,21,10,03,19.80
2015,06,21,10,04,19.80
2015,06,21,10,05,19.80
2015,06,21,10,06,19.80
2015,06,21,10,07,19.80
2015,06,21,10,08,19.80
2015,06,21,10,09,19.90
2015,06,21,10,10,19.90
2015,06,21,10,11,19.90
2015,06,21,10,12,20.00
2015,06,21,10,13,20.10
2015,06,21,10,14,20.20
2015,06,21,10,15,20.20
2015,06,21,10,16,20.30
2015,06,21,10,17,20.30
2015,06,21,10,18,20.30
2015,06,21,10,19,20.30
2015,06,21,10,20,20.30
2015,06,21,10,21,20.30
2015,06,21,10,22,20.40
2015,06,21,10,23,20.40
2015,06,21,10,24,20.40
2015,06,21,10,25,20.40
2015,06,21,10,26,20.40
2015,06,21,10,27,20.40
2015,06,21,10,28,20.30
2015,06,21,10,29,20.30
2015,06,21,10,30,20.30
2015,06,21,10,31,20.30
2015,06,21,10,32,20.30
2015,06,21,10,33,20.30
2015,06,21,10,34,20.30
2015,06,21,10,35,20.30
2015,06,21,10,36,20.40
2015,06,21,10,37,20.40
2015,06,21,10,38,20.40
2015,06,21,10,39,20.50
2015,06,21,10,40,20.50
2015,06,21,10,41,20.60
2015,06,21,10,42,20.60
2015,06,21,10,43,20.70
2015,06,21,10,44,20.70
2015,06,21,10,45,20.80
2015,06,21,10,46,20.80
2015,06,21,10,47,20.90
2015,06,21,10,48,20.90
2015,06,21,10,49,21.00
2015,06,21,10,50,21.00
2015,06,21,10,51,21.10
2015,06,21,10,52,21.10
2015,06,21,10,53,21.10
2015,06,21,10,54,21.10
2015,06,21,10,55,21.10
2015,06,21,10,56,21.10
2015,06,21,10,57,21.20
2015,06,21,10,58,21.20
2015,06,21,10,59,21.20
2015,06,21,11,00,21.30
2015,06,21,11,01,21.40
2015,06,21,11,02,21.40
2015,06,21,11,03,21.50
2015,06,21,11,04,21.60
2015,06,21,11,05,21.60
2015,06,21,11,06,21.70
2015,06,21,11,07,21.80
2015,06,21,11,08,21.80
2015,06,21,11,09,21.90
2015,06,21,11,10,21.90
2015,06,21,11,11,22.00
2015,06,21,11,12,21.90
2015,06,21,11,13,22.00
2015,06,21,11,14,22.00
2015,06,21,11,15,22.10
2015,06,21,11,16,22.20
2015,06,21,11,17,22.20
2015,06,21,11,18,22.30
2015,06,21,11,19,22.30
2015,06,21,11,20,22.40
2015,06,21,11,21,22.50
2015,06,21,11,22,22.40
2015,06,21,11,23,22.30
2015,06,21,11,24,22.20
2015,06,21,11,25,22.20
2015,06,21,11,26,22.20
2015,06,21,11,27,22.10
2015,06,21,11,28,22.00
2015,06,21,11,29,22.00
2015,06,21,11,30,21.90
2015,06,21,11,31,21.80
2015,06,21,11,32,21.80
2015,06,21,11,33,21.80
2015,06,21,11,34,21.90
2015,06,21,11,35,22.00
2015,06,21,11,36,22.10
2015,06,21,11,37,22.20
2015,06,21,11,38,22.30
2015,06,21,11,39,22.50
2015,06,21,11,40,22.60
2015,06,21,11,41,22.70
2015,06,21,11,42,22.80
2015,06,21,11,43,22.90
2015,06,21,11,44,23.00
2015,06,21,11,45,23.00
2015,06,21,11,46,23.10
2015,06,21,11,47,23.00
2015,06,21,11,48,22.70
2015,06,21,11,49,22.50
2015,06,21,11,50,22.30
2015,06,21,11,51,22.30
2015,06,21,11,52,22.30
2015,06,21,11,53,22.30
2015,06,21,11,54,22.30
2015,06,21,11,55,22.40
2015,06,21,11,56,22.50
2015,06,21,11,57,22.60
2015,06,21,11,58,22.70
2015,06,21,11,59,22.80
2015,06,21,12,00,22.90
2015,06,21,12,01,22.90
2015,06,21,12,02,23.00
2015,06,21,12,03,23.10
2015,06,21,12,04,23.20
2015,06,21,12,05,23.30
2015,06,21,12,06,23.30
2015,06,21,12,07,23.30
2015,06,21,12,08,23.30
2015,06,21,12,09,23.40
2015,06,21,12,10,23.40
2015,06,21,12,11,23.40
2015,06,21,12,12,23.40
2015,06,21,12,13,23.50
2015,06,21,12,14,23.50
2015,06,21,12,15,23.60
2015,06,21,12,16,23.60
2015,06,21,12,17,23.60
2015,06,21,12,18,23.50
2015,06,21,12,19,23.30
2015,06,21,12,20,23.30
2015,06,21,12,21,23.30
2015,06,21,12,22,23.30
2015,06,21,12,23,23.40
2015,06,21,12,24,23.40
2015,06,21,12,25,23.40
2015,06,21,12,26,23.50
2015,06,21,12,27,23.60
2015,06,21,12,28,23.70
2015,06,21,12,29,23.70
2015,06,21,12,30,23.70
2015,06,21,12,31,23.50
2015,06,21,12,32,23.40
2015,06,21,12,33,23.40
2015,06,21,12,34,23.40
2015,06,21,12,35,23.40
2015,06,21,12,36,23.50
2015,06,21,12,37,23.60
2015,06,21,12,38,23.60
2015,06,21,12,39,23.50
2015,06,21,12,40,23.40
2015,06,21,12,41,23.40
2015,06,21,12,42,23.40
2015,06,21,12,43,23.30
2015,06,21,12,44,23.40
2015,06,21,12,45,23.40
2015,06,21,12,46,23.50
2015,06,21,12,47,23.50
2015,06,21,12,48,23.60
2015,06,21,12,49,23.60
2015,06,21,12,50,23.70
2015,06,21,12,51,23.70
2015,06,21,12,52,23.80
2015,06,21,12,53,23.80
2015,06,21,12,54,23.80
2015,06,21,12,55,23.90
2015,06,21,12,56,23.80
2015,06,21,12,57,23.80
2015,06,21,12,58,23.70
2015,06,21,12,59,23.80
2015,06,21,13,00,23.80
2015,06,21,13,01,23.80
2015,06,21,13,02,23.90
2015,06,21,13,03,24.00
2015,06,21,13,04,24.10
2015,06,21,13,05,24.20
2015,06,21,13,06,24.30
2015,06,21,13,07,24.40
2015,06,21,13,08,24.50
2015,06,21,13,09,24.60
2015,06,21,13,10,24.60
2015,06,21,13,11,24.60
2015,06,21,13,12,24.60
2015,06,21,13,13,24.60
2015,06,21,13,14,24.60
2015,06,21,13,15,24.60
2015,06,21,13,16,24.70
2015,06,21,13,17,24.70
2015,06,21,13,18,24.70
2015,06,21,13,19,24.70
2015,06,21,13,20,24.70
2015,06,21,13,21,24.80
2015,06,21,13,22,24.80
2015,06,21,13,23,24.80
2015,06,21,13,24,24.80
2015,06,21,13,25,24.80
2015,06,21,13,26,24.80
2015,06,21,13,27,24.80
2015,06,21,13,28,24.90
2015,06,21,13,29,25.10
2015,06,21,13,30,25.20
2015,06,21,13,31,25.30
2015,06,21,13,32,25.30
2015,06,21,13,33,25.30
2015,06,21,13,34,25.30
2015,06,21,13,35,25.30
2015,06,21,13,36,25.30
2015,06,21,13,37,25.40
2015,06,21,13,38,25.30
2015,06,21,13,39,25.30
2015,06,21,13,40,25.20
2015,06,21,13,41,25.10
2015,06,21,13,42,25.10
2015,06,21,13,43,25.10
2015,06,21,13,44,25.10
2015,06,21,13,45,25.10
2015,06,21,13,46,25.10
2015,06,21,13,47,25.10
2015,06,21,13,48,25.10
2015,06,21,13,49,25.00
2015,06,21,13,50,25.00
2015,06,21,13,51,25.00
2015,06,21,13,52,25.00
2015,06,21,13,53,25.00
2015,06,21,13,54,25.00
2015,06,21,13,55,25.00
2015,06,21,13,56,25.00
2015,06,21,13,57,25.00
2015,06,21,13,58,24.90
2015,06,21,13,59,24.80
2015,06,21,14,00,24.60
2015,06,21,14,01,24.60
2015,06,21,14,02,24.60
2015,06,21,14,03,24.60
2015,06,21,14,04,24.70
2015,06,21,14,05,24.70
2015,06,21,14,06,24.60
2015,06,21,14,07,24.50
2015,06,21,14,08,24.40
2015,06,21,14,09,24.20
2015,06,21,14,10,24.10
2015,06,21,14,11,24.10
2015,06,21,14,12,24.10
2015,06,21,14,13,24.10
2015,06,21,14,14,24.20
2015,06,21,14,15,24.30
2015,06,21,14,16,24.30
2015,06,21,14,17,24.30
2015,06,21,14,18,24.30
2015,06,21,14,19,24.30
2015,06,21,14,20,24.40
2015,06,21,14,21,24.40
2015,06,21,14,22,24.30
2015,06,21,14,23,24.30
2015,06,21,14,24,24.20
2015,06,21,14,25,24.00
2015,06,21,14,26,23.90
2015,06,21,14,27,23.90
2015,06,21,14,28,23.80
2015,06,21,14,29,23.90
2015,06,21,14,30,23.90
2015,06,21,14,31,23.90
2015,06,21,14,32,24.00
2015,06,21,14,33,24.10
2015,06,21,14,34,24.20
2015,06,21,14,35,24.30
2015,06,21,14,36,24.50
2015,06,21,14,37,24.60
2015,06,21,14,38,24.70
2015,06,21,14,39,24.70
2015,06,21,14,40,24.70
2015,06,21,14,41,24.80
2015,06,21,14,42,24.70
2015,06,21,14,43,24.70
2015,06,21,14,44,24.60
2015,06,21,14,45,24.50
2015,06,21,14,46,24.50
2015,06,21,14,47,24.50
2015,06,21,14,48,24.60
2015,06,21,14,49,24.60
2015,06,21,14,50,24.60
2015,06,21,14,51,24.70
2015,06,21,14,52,24.70
2015,06,21,14,53,24.80
2015,06,21,14,54,24.80
2015,06,21,14,55,24.90
2015,06,21,14,56,24.90
2015,06,21,14,57,24.90
2015,06,21,14,58,25.00
2015,06,21,14,59,25.10
2015,06,21,15,00,25.20
2015,06,21,15,01,25.20
2015,06,21,15,02,25.10
2015,06,21,15,03,25.00
2015,06,21,15,04,25.00
2015,06,21,15,05,25.00
2015,06,21,15,06,25.10
2015,06,21,15,07,25.10
2015,06,21,15,08,25.00
2015,06,21,15,09,24.90
2015,06,21,15,10,24.80
2015,06,21,15,11,24.80
2015,06,21,15,12,24.80
2015,06,21,15,13,24.80
2015,06,21,15,14,24.70
2015,06,21,15,15,24.70
2015,06,21,15,16,24.70
2015,06,21,15,17,24.70
2015,06,21,15,18,24.70
2015,06,21,15,19,24.80
2015,06,21,15,20,24.80
2015,06,21,15,21,24.80
2015,06,21,15,22,24.80
2015,06,21,15,23,24.80
2015,06,21,15,24,24.80
2015,06,21,15,25,24.80
2015,06,21,15,26,24.80
2015,06,21,15,27,24.80
2015,06,21,15,28,24.80
2015,06,21,15,29,24.70
2015,06,21,15,30,24.60
2015,06,21,15,31,24.50
2015,06,21,15,32,24.40
2015,06,21,15,33,24.40
2015,06,21,15,34,24.40
2015,06,21,15,35,24.50
2015,06,21,15,36,24.60
2015,06,21,15,37,24.70
2015,06,21,15,38,24.80
2015,06,21,15,39,24.80
2015,06,21,15,40,24.90
2015,06,21,15,41,24.80
2015,06,21,15,42,24.80
2015,06,21,15,43,24.60
2015,06,21,15,44,24.60
2015,06,21,15,45,24.50
2015,06,21,15,46,24.40
2015,06,21,15,47,24.40
2015,06,21,15,48,24.40
2015,06,21,15,49,24.50
2015,06,21,15,50,24.60
2015,06,21,15,51,24.60
2015,06,21,15,52,24.50
2015,06,21,15,53,24.40
2015,06,21,15,54,24.30
2015,06,21,15,55,24.30
2015,06,21,15,56,24.30
2015,06,21,15,57,24.20
2015,06,21,15,58,24.20
2015,06,21,15,59,24.20
2015,06,21,16,00,24.20
2015,06,21,16,01,24.20
2015,06,21,16,02,24.20
2015,06,21,16,03,24.30
2015,06,21,16,04,24.30
2015,06,21,16,05,24.40
2015,06,21,16,06,24.40
2015,06,21,16,07,24.40
2015,06,21,16,08,24.40
2015,06,21,16,09,24.40
2015,06,21,16,10,24.40
2015,06,21,16,11,24.30
2015,06,21,16,12,24.30
2015,06,21,16,13,24.30
2015,06,21,16,14,24.30
2015,06,21,16,15,24.30
2015,06,21,16,16,24.30
2015,06,21,16,17,24.30
2015,06,21,16,18,24.30
2015,06,21,16,19,24.30
2015,06,21,16,20,24.30
2015,06,21,16,21,24.30
2015,06,21,16,22,24.20
2015,06,21,16,23,24.20
2015,06,21,16,24,24.30
2015,06,21,16,25,24.30
2015,06,21,16,26,24.40
2015,06,21,16,27,24.40
2015,06,21,16,28,24.40
2015,06,21,16,29,24.50
2015,06,21,16,30,24.60
2015,06,21,16,31,24.70
2015,06,21,16,32,24.70
2015,06,21,16,33,24.80
2015,06,21,16,34,24.80
2015,06,21,16,35,24.90
2015,06,21,16,36,24.90
2015,06,21,16,37,24.90
2015,06,21,16,38,24.90
2015,06,21,16,39,24.90
2015,06,21,16,40,24.90
2015,06,21,16,41,24.80
2015,06,21,16,42,24.80
2015,06,21,16,43,24.80
2015,06,21,16,44,24.80
2015,06,21,16,45,24.80
2015,06,21,16,46,24.50
2015,06,21,16,47,24.30
2015,06,21,16,48,24.10
2015,06,21,16,49,24.00
2015,06,21,16,50,23.90
2015,06,21,16,51,23.80
2015,06,21,16,52,23.70
2015,06,21,16,53,23.70
2015,06,21,16,54,23.60
2015,06,21,16,55,23.60
2015,06,21,16,56,23.50
2015,06,21,16,57,23.50
2015,06,21,16,58,23.40
2015,06,21,16,59,23.40
2015,06,21,17,00,23.40
2015,06,21,17,01,23.40
2015,06,21,17,02,23.50
2015,06,21,17,03,23.60
2015,06,21,17,04,23.70
2015,06,21,17,05,23.70
2015,06,21,17,06,23.70
2015,06,21,17,07,23.80
2015,06,21,17,08,23.90
2015,06,21,17,09,23.90
2015,06,21,17,10,23.90
2015,06,21,17,11,23.90
2015,06,21,17,12,24.00
2015,06,21,17,13,24.00
2015,06,21,17,14,24.00
2015,06,21,17,15,24.00
2015,06,21,17,16,24.10
2015,06,21,17,17,24.00
2015,06,21,17,18,24.00
2015,06,21,17,19,23.90
2015,06,21,17,20,23.90
2015,06,21,17,21,23.80